Location: Unspecified
(0.0000°N, 0.0000°E)
Time: 02:49:38
(UTC+00:00)

Hubble Space Telescope - Pass Details

Date: 24 April 2018
Orbit: 537 x 541 km, 28.5° (Epoch: 17 July)

Event Time Altitude Azimuth Distance (km) Brightness Sun altitude
Exits shadow 05:30:20 - 294° (WNW) 2,415 3.6 -6.8°
Reaches altitude 10° 05:31:58 10° 292° (WNW) 1,782 2.9 -6.4°
Maximum altitude 05:36:03 64° 210° (SSW) 595 0.8 -5.4°
Drops below altitude 10° 05:40:08 10° 129° (SE) 1,784 4.0 -4.4°
Sets 05:42:25 0° 125° (SE) 2,675 5.0 -3.9°
